Weather History for Detroit, MI

Change the Weather History Date:

Sunday, March 23, 2014

  Actual Average Record
Temperature  
Mean Temperature 22 °F -  
Max Temperature 30 °F 47 °F 72 °F (1988)
Min Temperature 17 °F 29 °F 12 °F (1992)
Degree Days  
Heating Degree Days 42    
Moisture  
Dew Point 5 °F    
Average Humidity 45    
Maximum Humidity 54    
Minimum Humidity 37    
Precipitation  
Precipitation 0.00 in - - ()
Sea Level Pressure  
Sea Level Pressure 30.34 in    
Wind  
Wind Speed 10 mph (NNW)    
Max Wind Speed 15 mph    
Max Gust Speed 23 mph    
Visibility 10 miles    
Events      
Averages and records for this station are not official NWS values.
T = Trace of Precipitation, MM = Missing Value Source: NWS Daily Summary

Daily Weather History Graph

Daily Weather History Graph

Search for Another Location

Airport:

Trip Planner

Search our weather history database for the weather conditions in past years. The results will help you decide how hot, cold, wet, or windy it might be!

Date:

Astronomy

Mar. 23, 2014 Rise Set
Actual Time 7:30 AM EDT 7:47 PM EDT
Civil Twilight 7:02 AM EDT 8:15 PM EDT
Nautical Twilight 6:29 AM EDT 8:48 PM EDT
Astronomical Twilight 5:55 AM EDT 9:22 PM EDT
Moon 2:09 AM EDT (3/23) 12:04 PM EDT (3/23)
Length of Visible Light 13h 13m
Length of Day
12h 17m
Waning Gibbous, 55% of the Moon is Illuminated
Mar 23
Waning Gibbous
Mar 23
Last Quarter
Mar 30
New
Apr 7
First Quarter
Apr 15
Full

Hourly Weather History & Observations

Time (EDT) Temp. Windchill Dew Point Humidity Pressure Visibility Wind Dir Wind Speed Gust Speed Precip Events Conditions
12:53 AM 27.0 °F 15.2 °F 12.0 °F 53% 30.25 in 10.0 mi North 15.0 mph 23.0 mph N/A   Clear
1:53 AM 25.0 °F 13.1 °F 6.1 °F 45% 30.27 in 10.0 mi North 13.8 mph 20.7 mph N/A   Clear
2:53 AM 23.0 °F 13.1 °F 3.9 °F 44% 30.30 in 10.0 mi NNW 9.2 mph 18.4 mph N/A   Clear
3:53 AM 21.0 °F 10.6 °F 3.9 °F 48% 30.29 in 10.0 mi North 9.2 mph - N/A   Clear
4:53 AM 21.0 °F 12.4 °F 5.0 °F 50% 30.31 in 10.0 mi NNW 6.9 mph - N/A   Clear
5:53 AM 19.9 °F 8.6 °F 3.0 °F 48% 30.32 in 10.0 mi North 10.4 mph - N/A   Clear
6:53 AM 19.0 °F 8.2 °F 1.9 °F 47% 30.35 in 10.0 mi North 9.2 mph 18.4 mph N/A   Clear
7:53 AM 17.1 °F 4.3 °F 1.0 °F 50% 30.37 in 10.0 mi North 11.5 mph 17.3 mph N/A   Clear
8:53 AM 18.0 °F 6.9 °F 3.9 °F 54% 30.37 in 10.0 mi NNW 9.2 mph - N/A   Clear
9:53 AM 19.0 °F 8.2 °F 3.0 °F 50% 30.37 in 10.0 mi NNW 9.2 mph - N/A   Clear
10:53 AM 21.0 °F 10.6 °F 3.9 °F 48% 30.38 in 10.0 mi NW 9.2 mph - N/A   Clear
11:53 AM 23.0 °F 13.1 °F 5.0 °F 46% 30.38 in 10.0 mi NW 9.2 mph - N/A   Clear
12:53 PM 24.1 °F 15.2 °F 3.9 °F 42% 30.37 in 10.0 mi NNW 8.1 mph - N/A   Partly Cloudy
1:53 PM 28.0 °F 20.8 °F 6.1 °F 39% 30.36 in 10.0 mi NNW 6.9 mph - N/A   Scattered Clouds
2:53 PM 26.1 °F 17.6 °F 5.0 °F 41% 30.35 in 10.0 mi NW 8.1 mph 16.1 mph N/A   Scattered Clouds
3:53 PM 28.9 °F 20.4 °F 6.1 °F 38% 30.34 in 10.0 mi NW 9.2 mph - N/A   Overcast
4:53 PM 27.0 °F 19.5 °F 3.9 °F 37% 30.32 in 10.0 mi NW 6.9 mph - N/A   Mostly Cloudy
5:53 PM 27.0 °F 19.5 °F 5.0 °F 39% 30.33 in 10.0 mi Variable 6.9 mph - N/A   Overcast
6:53 PM 26.1 °F 15.6 °F 5.0 °F 41% 30.35 in 10.0 mi WNW 11.5 mph - N/A   Scattered Clouds
7:53 PM 25.0 °F 17.1 °F 5.0 °F 43% 30.36 in 10.0 mi NW 6.9 mph - N/A   Scattered Clouds
8:53 PM 25.0 °F 17.1 °F 3.9 °F 41% 30.37 in 10.0 mi NNW 6.9 mph - N/A   Overcast
9:53 PM 25.0 °F 17.1 °F 3.9 °F 41% 30.37 in 10.0 mi NNW 6.9 mph - N/A   Overcast
10:53 PM 25.0 °F 19.3 °F 5.0 °F 43% 30.37 in 10.0 mi NW 4.6 mph - N/A   Overcast
11:53 PM 25.0 °F 17.1 °F 5.0 °F 43% 30.37 in 10.0 mi NW 6.9 mph - N/A   Overcast